Home   Weather   Vennesla   Past weeks

Flag for Norway Past Weather in Vennesla, Norway — Yesterday and Last 2 Weeks

Now
48 °F

Clear.


Feels Like: 44 °F
Forecast: 46 / 58 °F
Wind: 9 mph from Southwest

Location: Kristiansand / Kjevik

Current Time: Sep 30, 2016 at 7:05:52 AM

Latest Report: Sep 30, 2016 at 6:20 AM


Visibility: 10 mi

Pressure: 29.50 "Hg

Humidity: 82%

Dew Point: 43 °F

Location of VenneslaLocation

Past Weather in Vennesla — Graph

°F

Vennesla Temperature Yesterday

Maximum temperature yesterday: 63 °F (at 3:50 AM)
Minimum temperature yesterday: 52 °F (at 9:50 PM)
Average temperature yesterday: 57 °F

High & Low Weather Summary for the Past Weeks

 TemperatureHumidityPressure
High79 °F (Sep 15, 2:20 PM)100% (Sep 15, 5:50 AM)30.24 "Hg (Sep 15, 5:50 AM)
Low45 °F (Sep 18, 6:20 AM)49% (Sep 18, 1:20 PM)29.27 "Hg (Sep 29, 4:20 PM)
Average58 °F84%30.03 "Hg
* Reported Sep 15 5:20 AM — Sep 30 5:50 AM, Vennesla, Weather by CustomWeather, © 2016

Note: Actual official high and low records may vary slightly from our data, if they occured in-between our weather recording intervals... More about our weather records

Advertising

Vennesla Weather History for the Previous 24 Hours

Scroll right to see more
 ConditionsComfort  
Time TempWeatherWind HumidityBarometerVisibility
5:50 AM
Fri, Sep 30
48 °FClear.8 mph82%29.50 "Hg10 mi
5:20 AM48 °FPassing clouds.9 mph82%29.47 "HgN/A
4:50 AM48 °FPassing clouds.8 mph82%29.47 "HgN/A
4:20 AM48 °FPassing clouds.10 mph82%29.47 "HgN/A
3:50 AM50 °FPassing clouds.14 mph71%29.45 "HgN/A
3:20 AM50 °FPartly cloudy.14 mph76%29.45 "HgN/A
2:50 AM50 °FPassing clouds.15 mph76%29.45 "HgN/A
2:20 AM50 °FPassing clouds.12 mph82%29.42 "HgN/A
1:50 AM50 °FPassing clouds.16 mph76%29.42 "HgN/A
1:20 AM50 °FPartly cloudy.15 mph76%29.42 "HgN/A
12:50 AM50 °FPassing clouds.14 mph76%29.39 "HgN/A
12:20 AM50 °FPassing clouds.16 mph76%29.39 "HgN/A
11:50 PM
Thu, Sep 29
52 °FPassing clouds.15 mph72%29.39 "HgN/A
11:20 PM52 °FPassing clouds.18 mph72%29.36 "HgN/A
10:50 PM52 °FClear.14 mph77%29.36 "Hg10 mi
10:20 PM52 °FPassing clouds.13 mph77%29.33 "HgN/A
9:50 PM52 °FPassing clouds.15 mph82%29.33 "HgN/A
9:20 PM54 °FPassing clouds.18 mph77%29.33 "HgN/A
8:50 PM54 °FPassing clouds.20 mph77%29.30 "HgN/A
8:20 PM54 °FPassing clouds.21 mph77%29.30 "HgN/A
7:50 PM54 °FPassing clouds.22 mph77%29.30 "HgN/A
7:20 PM54 °FPassing clouds.20 mph77%29.30 "HgN/A
6:50 PM54 °FScattered showers. Scattered clouds.20 mph82%29.27 "HgN/A
6:20 PM54 °FScattered showers. Scattered clouds.20 mph82%29.27 "HgN/A
5:50 PM54 °FRain. Scattered clouds.28 mph82%29.30 "Hg4 mi
5:20 PM57 °FDrizzle. Partly sunny.21 mph72%29.27 "HgN/A
4:50 PM57 °FScattered showers. Scattered clouds.23 mph67%29.27 "HgN/A
4:20 PM57 °FScattered showers. Scattered clouds.23 mph72%29.27 "HgN/A
3:50 PM57 °FSprinkles. Scattered clouds.23 mph72%29.30 "HgN/A
3:20 PM57 °FSprinkles. Scattered clouds.24 mph72%29.30 "HgN/A
2:50 PM57 °FSprinkles. Partly sunny.24 mph72%29.30 "HgN/A
2:20 PM59 °FPartly sunny.25 mph68%29.30 "HgN/A
1:50 PM57 °FSprinkles. Scattered clouds.26 mph77%29.33 "HgN/A
1:20 PM61 °FSprinkles. Scattered clouds.25 mph63%29.33 "HgN/A
12:50 PM59 °FScattered showers. Scattered clouds.23 mph63%29.33 "HgN/A
12:20 PM59 °FScattered showers. Scattered clouds.24 mph68%29.33 "HgN/A
11:50 AM59 °FScattered showers. Scattered clouds.22 mph68%29.36 "HgN/A
11:20 AM59 °FScattered showers. Scattered clouds.23 mph72%29.36 "HgN/A
10:50 AM59 °FScattered clouds.24 mph68%29.36 "HgN/A
10:20 AM59 °FPassing clouds.18 mph72%29.36 "HgN/A
9:50 AM59 °FPassing clouds.17 mph77%29.39 "HgN/A
9:20 AM59 °FPassing clouds.17 mph82%29.39 "HgN/A
8:50 AM61 °FPassing clouds.23 mph68%29.39 "HgN/A
8:20 AM61 °FScattered clouds.20 mph83%29.39 "HgN/A
7:50 AM61 °FScattered clouds.21 mph83%29.39 "HgN/A
7:20 AM61 °FPartly cloudy.18 mph88%29.39 "HgN/A
Weather by CustomWeather, © 2016

See weather overviewHow to use our weather pages